| time (UTC) | temp F | wind direction | speed MPH | gust MPH | rain 1hr in | rain 24hr in | rain mn in | humidity % | barometer mb |
| 20260906213059 | 65 | 186 | 3.0 | 10.0 | 0.00 | 0.02 | 0.00 | 76 | 1016.5 |
| 20260906211558 | 66 | 82 | 6.0 | 13.0 | 0.00 | 0.02 | 0.00 | 74 | 1016.5 |
| 20260906210114 | 67 | 194 | 4.0 | 7.0 | 0.00 | 0.02 | 0.00 | 72 | 1016.4 |
| 20260906204602 | 66 | 185 | 3.0 | 6.0 | 0.00 | 0.02 | 0.00 | 75 | 1016.4 |
| 20260906203051 | 65 | 198 | 2.0 | 7.0 | 0.00 | 0.02 | 0.00 | 75 | 1016.4 |
| 20260906201554 | 65 | 100 | 1.0 | 7.0 | 0.00 | 0.02 | 0.00 | 76 | 1016.4 |
| 20260906200051 | 65 | 248 | 2.0 | 5.0 | 0.00 | 0.02 | 0.00 | 75 | 1016.4 |
| 20260906194547 | 64 | 244 | 1.0 | 6.0 | 0.00 | 0.02 | 0.00 | 77 | 1016.3 |
| 20260906193046 | 63 | 320 | 1.0 | 4.0 | 0.00 | 0.02 | 0.00 | 79 | 1016.4 |
| 20260906191559 | 62 | 196 | 2.0 | 5.0 | 0.00 | 0.02 | 0.00 | 79 | 1016.5 |
| 20260906190041 | 62 | 149 | 3.0 | 6.0 | 0.00 | 0.02 | 0.00 | 80 | 1016.6 |
| 20260906184542 | 61 | 245 | 3.0 | 6.0 | 0.00 | 0.02 | 0.00 | 79 | 1016.6 |
| 20260906183037 | 60 | 161 | 3.0 | 5.0 | 0.00 | 0.02 | 0.00 | 79 | 1016.7 |
| 20260906181537 | 60 | 194 | 2.0 | 4.0 | 0.00 | 0.02 | 0.00 | 79 | 1016.6 |
| 20260906180052 | 60 | 188 | 0.0 | 4.0 | 0.00 | 0.02 | 0.00 | 79 | 1016.7 |
| 20260906174548 | 59 | 175 | 0.0 | 3.0 | 0.00 | 0.02 | 0.00 | 78 | 1016.6 |
| 20260906173033 | 59 | 218 | 1.0 | 3.0 | 0.00 | 0.02 | 0.00 | 79 | 1016.5 |
| 20260906171526 | 59 | 250 | 1.0 | 2.0 | 0.00 | 0.02 | 0.00 | 78 | 1016.4 |
| 20260906170025 | 59 | 248 | 1.0 | 3.0 | 0.00 | 0.02 | 0.00 | 77 | 1016.4 |
| 20260906164522 | 58 | 127 | 0.0 | 2.0 | 0.00 | 0.02 | 0.00 | 76 | 1016.3 |
| 20260906163019 | 57 | 105 | 0.0 | 1.0 | 0.00 | 0.02 | 0.00 | 74 | 1016.3 |
| 20260906161515 | 57 | 105 | 0.0 | 0.0 | 0.00 | 0.02 | 0.00 | 69 | 1016.2 |
| 20260906160013 | 56 | 51 | 0.0 | 0.0 | 0.00 | 0.02 | 0.00 | 67 | 1016.2 |
| 20260906154512 | 56 | 51 | 0.0 | 0.0 | 0.00 | 0.02 | 0.00 | 67 | 1016.2 |
| 20260906153014 | 56 | 51 | 0.0 | 0.0 | 0.00 | 0.02 | 0.00 | 66 | 1016.1 |
| 20260906151506 | 55 | 51 | 0.0 | 0.0 | 0.00 | 0.02 | 0.00 | 66 | 1016.0 |
| 20260906150010 | 55 | 51 | 0.0 | 0.0 | 0.00 | 0.02 | 0.00 | 66 | 1015.9 |
| 20260906144504 | 55 | 51 | 0.0 | 0.0 | 0.00 | 0.02 | 0.00 | 66 | 1015.7 |
| 20260906143002 | 54 | 51 | 0.0 | 0.0 | 0.00 | 0.02 | 0.00 | 67 | 1015.6 |
| 20260906141603 | 54 | 51 | 0.0 | 0.0 | 0.00 | 0.02 | 0.00 | 67 | 1015.6 |
| 20260906140058 | 54 | 51 | 0.0 | 0.0 | 0.00 | 0.02 | 0.00 | 68 | 1015.3 |
| 20260906134614 | 54 | 51 | 0.0 | 0.0 | 0.00 | 0.02 | 0.00 | 67 | 1015.1 |
| 20260906133101 | 54 | 51 | 0.0 | 0.0 | 0.00 | 0.02 | 0.00 | 68 | 1015.1 |
| 20260906131557 | 54 | 51 | 0.0 | 0.0 | 0.00 | 0.02 | 0.00 | 69 | 1015.0 |
| 20260906130056 | 54 | 51 | 0.0 | 0.0 | 0.00 | 0.02 | 0.00 | 70 | 1015.0 |
| 20260906124555 | 54 | 51 | 0.0 | 0.0 | 0.00 | 0.02 | 0.00 | 69 | 1015.0 |
| 20260906123058 | 55 | 51 | 0.0 | 0.0 | 0.00 | 0.02 | 0.00 | 69 | 1015.1 |
| 20260906121553 | 55 | 51 | 0.0 | 0.0 | 0.00 | 0.02 | 0.00 | 69 | 1015.3 |
| 20260906120057 | 54 | 51 | 0.0 | 0.0 | 0.00 | 0.02 | 0.00 | 70 | 1015.3 |
| 20260906114552 | 54 | 51 | 0.0 | 0.0 | 0.00 | 0.02 | 0.00 | 70 | 1015.2 |
| 20260906113052 | 55 | 51 | 0.0 | 0.0 | 0.00 | 0.02 | 0.00 | 70 | 1015.2 |
| 20260906111551 | 54 | 51 | 0.0 | 0.0 | 0.00 | 0.02 | 0.00 | 69 | 1015.2 |
| 20260906110055 | 54 | 51 | 0.0 | 1.0 | 0.00 | 0.02 | 0.00 | 70 | 1015.3 |
| 20260906104551 | 54 | 51 | 0.0 | 0.0 | 0.00 | 0.02 | 0.00 | 71 | 1015.2 |
| 20260906103102 | 54 | 51 | 0.0 | 0.0 | 0.00 | 0.02 | 0.00 | 70 | 1015.1 |
| 20260906101548 | 54 | 51 | 0.0 | 0.0 | 0.00 | 0.02 | 0.00 | 70 | 1014.9 |
| 20260906100047 | 54 | 51 | 0.0 | 0.0 | 0.00 | 0.02 | 0.00 | 70 | 1014.9 |
| 20260906094545 | 54 | 51 | 0.0 | 1.0 | 0.00 | 0.02 | 0.00 | 70 | 1015.1 |
| 20260906093050 | 54 | 51 | 0.0 | 0.0 | 0.00 | 0.02 | 0.00 | 70 | 1015.1 |
| 20260906091545 | 54 | 51 | 0.0 | 0.0 | 0.00 | 0.02 | 0.00 | 71 | 1015.0 |
| 20260906090058 | 54 | 51 | 0.0 | 0.0 | 0.00 | 0.02 | 0.00 | 71 | 1014.9 |
| 20260906084543 | 54 | 51 | 0.0 | 0.0 | 0.00 | 0.02 | 0.00 | 70 | 1014.8 |
| 20260906083042 | 54 | 51 | 0.0 | 0.0 | 0.00 | 0.02 | 0.00 | 71 | 1014.9 |
| 20260906081540 | 54 | 51 | 0.0 | 0.0 | 0.00 | 0.02 | 0.00 | 71 | 1015.0 |
| 20260906080039 | 54 | 51 | 0.0 | 0.0 | 0.00 | 0.02 | 0.00 | 71 | 1015.0 |
| 20260906074539 | 54 | 51 | 0.0 | 0.0 | 0.00 | 0.02 | 0.00 | 71 | 1015.1 |
| 20260906073054 | 54 | 51 | 0.0 | 0.0 | 0.00 | 0.02 | 0.00 | 71 | 1015.1 |
| 20260906071536 | 54 | 51 | 0.0 | 1.0 | 0.00 | 0.02 | 0.00 | 71 | 1015.1 |
| 20260906070037 | 54 | 89 | 0.0 | 1.0 | 0.00 | 0.02 | 0.02 | 72 | 1015.2 |
| 20260906064534 | 54 | 38 | 0.0 | 0.0 | 0.00 | 0.02 | 0.02 | 72 | 1015.1 |
| 20260906063044 | 54 | 38 | 0.0 | 0.0 | 0.00 | 0.02 | 0.02 | 72 | 1015.1 |
| 20260906061532 | 54 | 30 | 0.0 | 0.0 | 0.00 | 0.02 | 0.02 | 73 | 1015.2 |
| 20260906060030 | 54 | 30 | 0.0 | 0.0 | 0.00 | 0.02 | 0.02 | 74 | 1015.2 |
| 20260906054530 | 54 | 30 | 0.0 | 0.0 | 0.00 | 0.02 | 0.02 | 75 | 1015.2 |
| 20260906053030 | 55 | 30 | 0.0 | 0.0 | 0.00 | 0.02 | 0.02 | 75 | 1015.2 |
| 20260906051549 | 55 | 30 | 0.0 | 0.0 | 0.00 | 0.02 | 0.02 | 76 | 1015.3 |
| 20260906050038 | 55 | 30 | 0.0 | 1.0 | 0.00 | 0.02 | 0.02 | 76 | 1015.4 |
| 20260906044534 | 56 | 30 | 0.0 | 2.0 | 0.00 | 0.02 | 0.02 | 76 | 1015.6 |
| 20260906043028 | 56 | 30 | 0.0 | 1.0 | 0.00 | 0.02 | 0.02 | 76 | 1015.7 |
| 20260906041528 | 57 | 30 | 0.0 | 1.0 | 0.00 | 0.02 | 0.02 | 76 | 1015.7 |
| 20260906040034 | 57 | 30 | 0.0 | 0.0 | 0.00 | 0.02 | 0.02 | 76 | 1015.6 |
| 20260906034533 | 58 | 30 | 0.0 | 1.0 | 0.00 | 0.02 | 0.02 | 77 | 1015.4 |
| 20260906033026 | 59 | 30 | 0.0 | 0.0 | 0.00 | 0.02 | 0.02 | 78 | 1015.3 |
| 20260906031536 | 60 | 30 | 0.0 | 2.0 | 0.00 | 0.02 | 0.02 | 78 | 1015.3 |
| 20260906030025 | 61 | 30 | 0.0 | 1.0 | 0.00 | 0.02 | 0.02 | 78 | 1015.2 |
| 20260906024525 | 62 | 30 | 0.0 | 1.0 | 0.01 | 0.02 | 0.02 | 78 | 1015.3 |
| 20260906023024 | 63 | 30 | 0.0 | 1.0 | 0.02 | 0.02 | 0.02 | 78 | 1015.2 |
| 20260906021523 | 65 | 30 | 0.0 | 2.0 | 0.02 | 0.02 | 0.02 | 77 | 1015.3 |
| 20260906020023 | 67 | 360 | 0.0 | 2.0 | 0.02 | 0.02 | 0.02 | 72 | 1015.3 |
| 20260906014527 | 69 | 82 | 1.0 | 2.0 | 0.01 | 0.01 | 0.01 | 65 | 1015.3 |
| 20260906013021 | 69 | 355 | 0.0 | 5.0 | 0.00 | 0.00 | 0.00 | 60 | 1015.4 |
| 20260906011521 | 70 | 333 | 2.0 | 6.0 | 0.00 | 0.00 | 0.00 | 59 | 1015.3 |
| 20260906010020 | 70 | 322 | 1.0 | 5.0 | 0.00 | 0.00 | 0.00 | 58 | 1015.3 |
| 20260906004520 | 70 | 304 | 2.0 | 6.0 | 0.00 | 0.00 | 0.00 | 56 | 1015.3 |
| 20260906003019 | 70 | 234 | 2.0 | 7.0 | 0.00 | 0.00 | 0.00 | 57 | 1015.4 |
| 20260906001518 | 70 | 250 | 0.0 | 6.0 | 0.00 | 0.00 | 0.00 | 58 | 1015.4 |
| 20260906000018 | 70 | 236 | 3.0 | 6.0 | 0.00 | 0.01 | 0.00 | 58 | 1015.3 |
| 20260905234517 | 70 | 229 | 4.0 | 9.0 | 0.00 | 0.01 | 0.00 | 57 | 1015.3 |
| 20260905233018 | 70 | 228 | 5.0 | 8.0 | 0.00 | 0.01 | 0.00 | 57 | 1015.3 |
| 20260905231522 | 72 | 293 | 2.0 | 9.0 | 0.00 | 0.01 | 0.00 | 56 | 1015.4 |
| 20260905230019 | 70 | 45 | 0.0 | 4.0 | 0.00 | 0.03 | 0.00 | 58 | 1015.5 |
| 20260905224511 | 69 | 153 | 1.0 | 4.0 | 0.00 | 0.03 | 0.00 | 59 | 1015.6 |
| 20260905223010 | 69 | 257 | 1.0 | 6.0 | 0.00 | 0.03 | 0.00 | 60 | 1015.7 |
| 20260905221508 | 70 | 260 | 0.0 | 5.0 | 0.00 | 0.03 | 0.00 | 62 | 1015.8 |
| 20260905220005 | 68 | 213 | 1.0 | 5.0 | 0.00 | 0.05 | 0.00 | 65 | 1016.1 |
| 20260905214504 | 68 | 88 | 3.0 | 6.0 | 0.00 | 0.05 | 0.00 | 64 | 1016.2 |